TimeEDT,TemperatureF,Dew PointF,Humidity,Sea Level PressureIn,VisibilityMPH,Wind Direction,Wind SpeedMPH,Gust SpeedMPH,PrecipitationIn,Events,Conditions,WindDirDegrees,DateUTC
12:15 AM,63.9,62.6,96,30.14,5.0,Calm,Calm,-,N/A,,Mostly Cloudy,0,2013-08-24 04:15:00
12:35 AM,64.0,62.8,96,30.15,7.0,Calm,Calm,-,N/A,,Overcast,0,2013-08-24 04:35:00
12:55 AM,64.4,63.0,95,30.16,5.0,NNE,3.5,-,N/A,,Overcast,30,2013-08-24 04:55:00
1:15 AM,64.6,63.0,94,30.16,7.0,NNE,3.5,-,N/A,,Overcast,20,2013-08-24 05:15:00
1:35 AM,64.8,62.6,93,30.16,5.0,North,4.6,-,N/A,,Overcast,10,2013-08-24 05:35:00
1:55 AM,64.6,62.2,92,30.16,5.0,NNE,4.6,-,N/A,,Overcast,20,2013-08-24 05:55:00
2:15 AM,64.8,62.2,92,30.16,5.0,NNE,3.5,-,N/A,,Overcast,20,2013-08-24 06:15:00
2:35 AM,64.4,61.9,92,30.16,7.0,NNE,3.5,-,N/A,,Overcast,20,2013-08-24 06:35:00
2:55 AM,63.7,61.7,93,30.17,5.0,NNE,3.5,-,N/A,,Mostly Cloudy,20,2013-08-24 06:55:00
3:15 AM,63.1,61.7,95,30.17,4.0,Calm,Calm,-,N/A,,Scattered Clouds,0,2013-08-24 07:15:00
3:35 AM,62.6,61.2,95,30.17,7.0,Calm,Calm,-,N/A,,Clear,0,2013-08-24 07:35:00
3:55 AM,62.1,61.0,96,30.17,5.0,Calm,Calm,-,N/A,,Clear,0,2013-08-24 07:55:00
4:15 AM,60.3,59.5,97,30.18,3.0,Calm,Calm,-,N/A,,Clear,0,2013-08-24 08:15:00
4:35 AM,59.0,58.6,99,30.18,2.5,Calm,Calm,-,N/A,,Clear,0,2013-08-24 08:35:00
4:55 AM,58.8,58.6,99,30.19,4.0,Calm,Calm,-,N/A,,Clear,0,2013-08-24 08:55:00
5:15 AM,58.3,58.1,99,30.19,3.0,Calm,Calm,-,N/A,,Clear,0,2013-08-24 09:15:00
5:35 AM,57.6,57.4,99,30.19,2.5,Calm,Calm,-,N/A,,Clear,0,2013-08-24 09:35:00
5:55 AM,56.7,56.7,100,30.20,1.0,Calm,Calm,-,N/A,,Mist,0,2013-08-24 09:55:00
6:15 AM,56.5,56.5,100,30.20,1.2,Calm,Calm,-,N/A,,Mist,0,2013-08-24 10:15:00
6:35 AM,56.1,56.1,100,30.22,2.5,Calm,Calm,-,N/A,,Clear,0,2013-08-24 10:35:00
6:55 AM,55.0,55.0,100,30.22,0.2,Calm,Calm,-,N/A,Fog,Fog,0,2013-08-24 10:55:00
7:15 AM,55.2,55.2,100,30.24,0.8,Calm,Calm,-,N/A,,Mist,0,2013-08-24 11:15:00
7:35 AM,56.5,56.5,100,30.24,2.5,Calm,Calm,-,N/A,,Clear,0,2013-08-24 11:35:00
7:55 AM,60.3,60.3,100,30.25,4.0,Calm,Calm,-,N/A,,Clear,0,2013-08-24 11:55:00
8:15 AM,62.1,62.1,100,30.25,7.0,Calm,Calm,-,N/A,,Clear,0,2013-08-24 12:15:00
8:35 AM,63.7,63.5,99,30.26,10.0,Calm,Calm,-,N/A,,Clear,0,2013-08-24 12:35:00
8:55 AM,65.7,62.8,90,30.26,7.0,NE,4.6,-,N/A,,Clear,50,2013-08-24 12:55:00
9:15 AM,67.1,62.8,86,30.27,10.0,NE,3.5,-,N/A,,Clear,50,2013-08-24 13:15:00
9:35 AM,68.5,62.6,81,30.27,10.0,Calm,Calm,-,N/A,,Clear,0,2013-08-24 13:35:00
9:55 AM,70.0,61.9,75,30.28,10.0,NE,4.6,-,N/A,,Clear,50,2013-08-24 13:55:00
10:15 AM,70.7,61.3,72,30.28,10.0,NE,5.8,-,N/A,,Clear,40,2013-08-24 14:15:00
10:35 AM,72.0,61.0,68,30.28,10.0,Calm,Calm,-,N/A,,Clear,0,2013-08-24 14:35:00
10:55 AM,73.2,60.4,64,30.29,7.0,NE,4.6,-,N/A,,Clear,40,2013-08-24 14:55:00
11:15 AM,73.6,58.8,60,30.29,7.0,NNE,5.8,-,N/A,,Clear,30,2013-08-24 15:15:00
11:35 AM,74.7,59.2,58,30.29,10.0,NNE,5.8,-,N/A,,Clear,30,2013-08-24 15:35:00
11:55 AM,75.6,58.3,55,30.28,7.0,NNE,3.5,-,N/A,,Clear,30,2013-08-24 15:55:00
12:15 PM,76.1,59.5,56,30.28,7.0,NE,5.8,-,N/A,,Clear,50,2013-08-24 16:15:00
12:35 PM,76.6,58.5,53,30.28,4.0,ENE,5.8,-,N/A,,Haze,60,2013-08-24 16:35:00
12:55 PM,77.5,58.8,52,30.28,7.0,NE,6.9,-,N/A,,Clear,40,2013-08-24 16:55:00
1:15 PM,78.1,57.4,49,30.28,7.0,ENE,5.8,-,N/A,,Clear,60,2013-08-24 17:15:00
1:35 PM,78.4,54.7,44,30.28,5.0,ENE,6.9,-,N/A,,Haze,70,2013-08-24 17:35:00
1:55 PM,78.6,55.0,44,30.27,5.0,ENE,6.9,-,N/A,,Haze,60,2013-08-24 17:55:00
2:15 PM,79.5,55.0,43,30.28,7.0,East,6.9,-,N/A,,Scattered Clouds,100,2013-08-24 18:15:00
2:35 PM,79.0,56.1,45,30.27,7.0,ENE,6.9,-,N/A,,Scattered Clouds,60,2013-08-24 18:35:00
2:55 PM,78.6,56.3,46,30.27,5.0,NE,5.8,-,N/A,,Haze,40,2013-08-24 18:55:00
3:15 PM,79.9,57.2,46,30.27,5.0,ENE,4.6,-,N/A,,Haze,70,2013-08-24 19:15:00
3:35 PM,79.0,56.8,46,30.27,5.0,NE,4.6,-,N/A,,Haze,40,2013-08-24 19:35:00
3:55 PM,78.4,56.3,46,30.27,5.0,ENE,4.6,-,N/A,,Haze,60,2013-08-24 19:55:00
4:15 PM,80.1,57.6,46,30.26,7.0,ENE,3.5,-,N/A,,Scattered Clouds,60,2013-08-24 20:15:00
4:35 PM,79.7,57.0,46,30.27,7.0,ENE,4.6,-,N/A,,Scattered Clouds,60,2013-08-24 20:35:00
5:15 PM,79.2,58.6,49,30.27,5.0,ENE,3.5,-,N/A,,Haze,70,2013-08-24 21:15:00
5:35 PM,76.8,58.6,53,30.27,5.0,Calm,Calm,-,N/A,,Haze,0,2013-08-24 21:35:00
5:55 PM,77.4,59.4,54,30.26,7.0,Calm,Calm,-,N/A,,Clear,0,2013-08-24 21:55:00
6:15 PM,77.7,61.0,56,30.26,5.0,Calm,Calm,-,N/A,,Haze,0,2013-08-24 22:15:00
6:35 PM,77.4,59.4,54,30.27,5.0,NE,3.5,-,N/A,,Haze,50,2013-08-24 22:35:00
6:55 PM,76.1,59.9,57,30.26,5.0,Calm,Calm,-,N/A,,Haze,0,2013-08-24 22:55:00
7:15 PM,73.2,62.8,70,30.26,5.0,Calm,Calm,-,N/A,,Haze,0,2013-08-24 23:15:00
7:35 PM,69.6,64.2,83,30.27,5.0,Calm,Calm,-,N/A,,Haze,0,2013-08-24 23:35:00
7:55 PM,66.6,64.2,92,30.27,5.0,Calm,Calm,-,N/A,,Clear,0,2013-08-24 23:55:00
8:15 PM,64.6,63.1,95,30.28,5.0,Calm,Calm,-,N/A,,Clear,0,2013-08-25 00:15:00
8:35 PM,63.5,62.2,96,30.28,5.0,Calm,Calm,-,N/A,,Clear,0,2013-08-25 00:35:00
8:55 PM,61.7,60.8,97,30.29,7.0,Calm,Calm,-,N/A,,Clear,0,2013-08-25 00:55:00
9:15 PM,60.8,60.1,97,30.30,5.0,Calm,Calm,-,N/A,,Clear,0,2013-08-25 01:15:00
9:35 PM,60.1,59.7,99,30.30,5.0,Calm,Calm,-,N/A,,Clear,0,2013-08-25 01:35:00
9:55 PM,59.9,59.5,99,30.31,5.0,Calm,Calm,-,N/A,,Clear,0,2013-08-25 01:55:00
10:15 PM,59.0,58.6,99,30.31,4.0,Calm,Calm,-,N/A,,Clear,0,2013-08-25 02:15:00
10:35 PM,58.5,58.3,99,30.32,5.0,Calm,Calm,-,N/A,,Clear,0,2013-08-25 02:35:00
10:55 PM,58.1,57.9,99,30.32,5.0,Calm,Calm,-,N/A,,Clear,0,2013-08-25 02:55:00
11:15 PM,57.9,57.7,99,30.33,5.0,Calm,Calm,-,N/A,,Clear,0,2013-08-25 03:15:00
11:35 PM,57.4,57.2,99,30.33,7.0,Calm,Calm,-,N/A,,Clear,0,2013-08-25 03:35:00
11:55 PM,57.4,57.2,99,30.34,7.0,Calm,Calm,-,N/A,,Clear,0,2013-08-25 03:55:00